Year,Month,Day,Hour,Minute,Value (Times are PST for temperature in C)
2015,07,05,00,00,19.80
2015,07,05,00,01,19.80
2015,07,05,00,02,19.80
2015,07,05,00,03,19.80
2015,07,05,00,04,19.80
2015,07,05,00,05,19.70
2015,07,05,00,06,19.70
2015,07,05,00,07,19.70
2015,07,05,00,08,19.70
2015,07,05,00,09,19.70
2015,07,05,00,10,19.60
2015,07,05,00,11,19.60
2015,07,05,00,12,19.60
2015,07,05,00,13,19.60
2015,07,05,00,14,19.60
2015,07,05,00,15,19.60
2015,07,05,00,16,19.50
2015,07,05,00,17,19.50
2015,07,05,00,18,19.50
2015,07,05,00,19,19.50
2015,07,05,00,20,19.50
2015,07,05,00,21,19.40
2015,07,05,00,22,19.40
2015,07,05,00,23,19.40
2015,07,05,00,24,19.40
2015,07,05,00,25,19.40
2015,07,05,00,26,19.40
2015,07,05,00,27,19.40
2015,07,05,00,28,19.40
2015,07,05,00,29,19.40
2015,07,05,00,30,19.40
2015,07,05,00,31,19.40
2015,07,05,00,32,19.40
2015,07,05,00,33,19.40
2015,07,05,00,34,19.40
2015,07,05,00,35,19.30
2015,07,05,00,36,19.30
2015,07,05,00,37,19.30
2015,07,05,00,38,19.30
2015,07,05,00,39,19.40
2015,07,05,00,40,19.40
2015,07,05,00,41,19.40
2015,07,05,00,42,19.30
2015,07,05,00,43,19.30
2015,07,05,00,44,19.30
2015,07,05,00,45,19.30
2015,07,05,00,46,19.30
2015,07,05,00,47,19.30
2015,07,05,00,48,19.20
2015,07,05,00,49,19.20
2015,07,05,00,50,19.20
2015,07,05,00,51,19.20
2015,07,05,00,52,19.20
2015,07,05,00,53,19.20
2015,07,05,00,54,19.10
2015,07,05,00,55,19.10
2015,07,05,00,56,19.10
2015,07,05,00,57,19.10
2015,07,05,00,58,19.10
2015,07,05,00,59,19.00
2015,07,05,01,00,19.00
2015,07,05,01,01,19.00
2015,07,05,01,02,19.00
2015,07,05,01,03,18.90
2015,07,05,01,04,18.90
2015,07,05,01,05,18.90
2015,07,05,01,06,18.90
2015,07,05,01,07,18.90
2015,07,05,01,08,18.90
2015,07,05,01,09,18.90
2015,07,05,01,10,18.90
2015,07,05,01,11,18.90
2015,07,05,01,12,18.80
2015,07,05,01,13,18.80
2015,07,05,01,14,18.80
2015,07,05,01,15,18.80
2015,07,05,01,16,18.80
2015,07,05,01,17,18.80
2015,07,05,01,18,18.80
2015,07,05,01,19,18.80
2015,07,05,01,20,18.80
2015,07,05,01,21,18.80
2015,07,05,01,22,18.80
2015,07,05,01,23,18.80
2015,07,05,01,24,18.80
2015,07,05,01,25,18.80
2015,07,05,01,26,18.70
2015,07,05,01,27,18.70
2015,07,05,01,28,18.70
2015,07,05,01,29,18.70
2015,07,05,01,30,18.70
2015,07,05,01,31,18.60
2015,07,05,01,32,18.60
2015,07,05,01,33,18.60
2015,07,05,01,34,18.60
2015,07,05,01,35,18.50
2015,07,05,01,36,18.50
2015,07,05,01,37,18.50
2015,07,05,01,38,18.40
2015,07,05,01,39,18.40
2015,07,05,01,40,18.40
2015,07,05,01,41,18.40
2015,07,05,01,42,18.30
2015,07,05,01,43,18.30
2015,07,05,01,44,18.30
2015,07,05,01,45,18.30
2015,07,05,01,46,18.30
2015,07,05,01,47,18.20
2015,07,05,01,48,18.20
2015,07,05,01,49,18.20
2015,07,05,01,50,18.20
2015,07,05,01,51,18.20
2015,07,05,01,52,18.20
2015,07,05,01,53,18.20
2015,07,05,01,54,18.20
2015,07,05,01,55,18.20
2015,07,05,01,56,18.10
2015,07,05,01,57,18.10
2015,07,05,01,58,18.10
2015,07,05,01,59,18.10
2015,07,05,02,00,18.10
2015,07,05,02,01,18.10
2015,07,05,02,02,18.10
2015,07,05,02,03,18.10
2015,07,05,02,04,18.00
2015,07,05,02,05,18.00
2015,07,05,02,06,18.00
2015,07,05,02,07,17.90
2015,07,05,02,08,17.90
2015,07,05,02,09,17.90
2015,07,05,02,10,17.90
2015,07,05,02,11,17.90
2015,07,05,02,12,17.80
2015,07,05,02,13,17.80
2015,07,05,02,14,17.80
2015,07,05,02,15,17.80
2015,07,05,02,16,17.80
2015,07,05,02,17,17.80
2015,07,05,02,18,17.80
2015,07,05,02,19,17.70
2015,07,05,02,20,17.70
2015,07,05,02,21,17.70
2015,07,05,02,22,17.70
2015,07,05,02,23,17.70
2015,07,05,02,24,17.70
2015,07,05,02,25,17.70
2015,07,05,02,26,17.70
2015,07,05,02,27,17.70
2015,07,05,02,28,17.70
2015,07,05,02,29,17.70
2015,07,05,02,30,17.70
2015,07,05,02,31,17.70
2015,07,05,02,32,17.70
2015,07,05,02,33,17.60
2015,07,05,02,34,17.70
2015,07,05,02,35,17.70
2015,07,05,02,36,17.70
2015,07,05,02,37,17.70
2015,07,05,02,38,17.70
2015,07,05,02,39,17.70
2015,07,05,02,40,17.70
2015,07,05,02,41,17.70
2015,07,05,02,42,17.70
2015,07,05,02,43,17.70
2015,07,05,02,44,17.70
2015,07,05,02,45,17.70
2015,07,05,02,46,17.70
2015,07,05,02,47,17.70
2015,07,05,02,48,17.70
2015,07,05,02,49,17.70
2015,07,05,02,50,17.70
2015,07,05,02,51,17.70
2015,07,05,02,52,17.70
2015,07,05,02,53,17.70
2015,07,05,02,54,17.70
2015,07,05,02,55,17.70
2015,07,05,02,56,17.70
2015,07,05,02,57,17.60
2015,07,05,02,58,17.60
2015,07,05,02,59,17.60
2015,07,05,03,00,17.60
2015,07,05,03,01,17.60
2015,07,05,03,02,17.60
2015,07,05,03,03,17.60
2015,07,05,03,04,17.60
2015,07,05,03,05,17.60
2015,07,05,03,06,17.50
2015,07,05,03,07,17.50
2015,07,05,03,08,17.50
2015,07,05,03,09,17.50
2015,07,05,03,10,17.50
2015,07,05,03,11,17.50
2015,07,05,03,12,17.50
2015,07,05,03,13,17.50
2015,07,05,03,14,17.40
2015,07,05,03,15,17.40
2015,07,05,03,16,17.40
2015,07,05,03,17,17.40
2015,07,05,03,18,17.40
2015,07,05,03,19,17.40
2015,07,05,03,20,17.40
2015,07,05,03,21,17.30
2015,07,05,03,22,17.30
2015,07,05,03,23,17.30
2015,07,05,03,24,17.30
2015,07,05,03,25,17.30
2015,07,05,03,26,17.30
2015,07,05,03,27,17.30
2015,07,05,03,28,17.30
2015,07,05,03,29,17.20
2015,07,05,03,30,17.20
2015,07,05,03,31,17.20
2015,07,05,03,32,17.20
2015,07,05,03,33,17.20
2015,07,05,03,34,17.20
2015,07,05,03,35,17.20
2015,07,05,03,36,17.20
2015,07,05,03,37,17.20
2015,07,05,03,38,17.20
2015,07,05,03,39,17.10
2015,07,05,03,40,17.10
2015,07,05,03,41,17.10
2015,07,05,03,42,17.10
2015,07,05,03,43,17.10
2015,07,05,03,44,17.00
2015,07,05,03,45,17.00
2015,07,05,03,46,17.00
2015,07,05,03,47,17.00
2015,07,05,03,48,16.90
2015,07,05,03,49,16.90
2015,07,05,03,50,16.90
2015,07,05,03,51,16.90
2015,07,05,03,52,16.90
2015,07,05,03,53,16.90
2015,07,05,03,54,16.80
2015,07,05,03,55,16.80
2015,07,05,03,56,16.80
2015,07,05,03,57,16.80
2015,07,05,03,58,16.80
2015,07,05,03,59,16.80
2015,07,05,04,00,16.80
2015,07,05,04,01,16.80
2015,07,05,04,02,16.80
2015,07,05,04,03,16.70
2015,07,05,04,04,16.70
2015,07,05,04,05,16.70
2015,07,05,04,06,16.70
2015,07,05,04,07,16.70
2015,07,05,04,08,16.70
2015,07,05,04,09,16.70
2015,07,05,04,10,16.70
2015,07,05,04,11,16.70
2015,07,05,04,12,16.60
2015,07,05,04,13,16.60
2015,07,05,04,14,16.60
2015,07,05,04,15,16.60
2015,07,05,04,16,16.60
2015,07,05,04,17,16.60
2015,07,05,04,18,16.60
2015,07,05,04,19,16.60
2015,07,05,04,20,16.60
2015,07,05,04,21,16.60
2015,07,05,04,22,16.50
2015,07,05,04,23,16.50
2015,07,05,04,24,16.50
2015,07,05,04,25,16.50
2015,07,05,04,26,16.50
2015,07,05,04,27,16.40
2015,07,05,04,28,16.40
2015,07,05,04,29,16.40
2015,07,05,04,30,16.40
2015,07,05,04,31,16.40
2015,07,05,04,32,16.40
2015,07,05,04,33,16.40
2015,07,05,04,34,16.30
2015,07,05,04,35,16.30
2015,07,05,04,36,16.30
2015,07,05,04,37,16.30
2015,07,05,04,38,16.30
2015,07,05,04,39,16.30
2015,07,05,04,40,16.20
2015,07,05,04,41,16.20
2015,07,05,04,42,16.20
2015,07,05,04,43,16.20
2015,07,05,04,44,16.20
2015,07,05,04,45,16.10
2015,07,05,04,46,16.10
2015,07,05,04,47,16.10
2015,07,05,04,48,16.10
2015,07,05,04,49,16.00
2015,07,05,04,50,16.00
2015,07,05,04,51,16.00
2015,07,05,04,52,16.00
2015,07,05,04,53,16.00
2015,07,05,04,54,15.90
2015,07,05,04,55,15.90
2015,07,05,04,56,15.90
2015,07,05,04,57,15.90
2015,07,05,04,58,15.90
2015,07,05,04,59,15.80
2015,07,05,05,00,15.80
2015,07,05,05,01,15.80
2015,07,05,05,02,15.80
2015,07,05,05,03,15.80
2015,07,05,05,04,15.80
2015,07,05,05,05,15.70
2015,07,05,05,06,15.70
2015,07,05,05,07,15.70
2015,07,05,05,08,15.70
2015,07,05,05,09,15.70
2015,07,05,05,10,15.60
2015,07,05,05,11,15.60
2015,07,05,05,12,15.60
2015,07,05,05,13,15.60
2015,07,05,05,14,15.60
2015,07,05,05,15,15.60
2015,07,05,05,16,15.60
2015,07,05,05,17,15.50
2015,07,05,05,18,15.50
2015,07,05,05,19,15.50
2015,07,05,05,20,15.50
2015,07,05,05,21,15.50
2015,07,05,05,22,15.40
2015,07,05,05,23,15.40
2015,07,05,05,24,15.40
2015,07,05,05,25,15.40
2015,07,05,05,26,15.40
2015,07,05,05,27,15.40
2015,07,05,05,28,15.30
2015,07,05,05,29,15.30
2015,07,05,05,30,15.30
2015,07,05,05,31,15.30
2015,07,05,05,32,15.30
2015,07,05,05,33,15.30
2015,07,05,05,34,15.30
2015,07,05,05,35,15.30
2015,07,05,05,36,15.30
2015,07,05,05,37,15.30
2015,07,05,05,38,15.30
2015,07,05,05,39,15.30
2015,07,05,05,40,15.30
2015,07,05,05,41,15.30
2015,07,05,05,42,15.30
2015,07,05,05,43,15.30
2015,07,05,05,44,15.30
2015,07,05,05,45,15.30
2015,07,05,05,46,15.30
2015,07,05,05,47,15.30
2015,07,05,05,48,15.30
2015,07,05,05,49,15.30
2015,07,05,05,50,15.30
2015,07,05,05,51,15.30
2015,07,05,05,52,15.30
2015,07,05,05,53,15.30
2015,07,05,05,54,15.30
2015,07,05,05,55,15.30
2015,07,05,05,56,15.30
2015,07,05,05,57,15.30
2015,07,05,05,58,15.30
2015,07,05,05,59,15.30
2015,07,05,06,00,15.30
2015,07,05,06,01,15.20
2015,07,05,06,02,15.30
2015,07,05,06,03,15.20
2015,07,05,06,04,15.20
2015,07,05,06,05,15.30
2015,07,05,06,06,15.20
2015,07,05,06,07,15.20
2015,07,05,06,08,15.20
2015,07,05,06,09,15.20
2015,07,05,06,10,15.20
2015,07,05,06,11,15.20
2015,07,05,06,12,15.20
2015,07,05,06,13,15.20
2015,07,05,06,14,15.20
2015,07,05,06,15,15.20
2015,07,05,06,16,15.20
2015,07,05,06,17,15.20
2015,07,05,06,18,15.20
2015,07,05,06,19,15.20
2015,07,05,06,20,15.20
2015,07,05,06,21,15.20
2015,07,05,06,22,15.20
2015,07,05,06,23,15.20
2015,07,05,06,24,15.20
2015,07,05,06,25,15.20
2015,07,05,06,26,15.20
2015,07,05,06,27,15.20
2015,07,05,06,28,15.20
2015,07,05,06,29,15.20
2015,07,05,06,30,15.20
2015,07,05,06,31,15.20
2015,07,05,06,32,15.20
2015,07,05,06,33,15.20
2015,07,05,06,34,15.10
2015,07,05,06,35,15.10
2015,07,05,06,36,15.10
2015,07,05,06,37,15.10
2015,07,05,06,38,15.10
2015,07,05,06,39,15.10
2015,07,05,06,40,15.10
2015,07,05,06,41,15.10
2015,07,05,06,42,15.10
2015,07,05,06,43,15.10
2015,07,05,06,44,15.10
2015,07,05,06,45,15.10
2015,07,05,06,46,15.10
2015,07,05,06,47,15.10
2015,07,05,06,48,15.10
2015,07,05,06,49,15.10
2015,07,05,06,50,15.10
2015,07,05,06,51,15.10
2015,07,05,06,52,15.10
2015,07,05,06,53,15.10
2015,07,05,06,54,15.10
2015,07,05,06,55,15.10
2015,07,05,06,56,15.10
2015,07,05,06,57,15.10
2015,07,05,06,58,15.10
2015,07,05,06,59,15.10
2015,07,05,07,00,15.10
2015,07,05,07,01,15.10
2015,07,05,07,02,15.10
2015,07,05,07,03,15.10
2015,07,05,07,04,15.10
2015,07,05,07,05,15.10
2015,07,05,07,06,15.10
2015,07,05,07,07,15.10
2015,07,05,07,08,15.10
2015,07,05,07,09,15.10
2015,07,05,07,10,15.20
2015,07,05,07,11,15.20
2015,07,05,07,12,15.20
2015,07,05,07,13,15.20
2015,07,05,07,14,15.20
2015,07,05,07,15,15.20
2015,07,05,07,16,15.20
2015,07,05,07,17,15.20
2015,07,05,07,18,15.20
2015,07,05,07,19,15.20
2015,07,05,07,20,15.20
2015,07,05,07,21,15.20
2015,07,05,07,22,15.30
2015,07,05,07,23,15.30
2015,07,05,07,24,15.30
2015,07,05,07,25,15.30
2015,07,05,07,26,15.30
2015,07,05,07,27,15.30
2015,07,05,07,28,15.30
2015,07,05,07,29,15.30
2015,07,05,07,30,15.30
2015,07,05,07,31,15.30
2015,07,05,07,32,15.30
2015,07,05,07,33,15.30
2015,07,05,07,34,15.30
2015,07,05,07,35,15.30
2015,07,05,07,36,15.30
2015,07,05,07,37,15.30
2015,07,05,07,38,15.40
2015,07,05,07,39,15.40
2015,07,05,07,40,15.40
2015,07,05,07,41,15.40
2015,07,05,07,42,15.40
2015,07,05,07,43,15.40
2015,07,05,07,44,15.40
2015,07,05,07,45,15.50
2015,07,05,07,46,15.50
2015,07,05,07,47,15.50
2015,07,05,07,48,15.50
2015,07,05,07,49,15.50
2015,07,05,07,50,15.60
2015,07,05,07,51,15.60
2015,07,05,07,52,15.60
2015,07,05,07,53,15.60
2015,07,05,07,54,15.60
2015,07,05,07,55,15.60
2015,07,05,07,56,15.60
2015,07,05,07,57,15.70
2015,07,05,07,58,15.70
2015,07,05,07,59,15.70
2015,07,05,08,00,15.70
2015,07,05,08,01,15.70
2015,07,05,08,02,15.70
2015,07,05,08,03,15.80
2015,07,05,08,04,15.80
2015,07,05,08,05,15.80
2015,07,05,08,06,15.80
2015,07,05,08,07,15.90
2015,07,05,08,08,15.90
2015,07,05,08,09,15.90
2015,07,05,08,10,15.90
2015,07,05,08,11,15.90
2015,07,05,08,12,16.00
2015,07,05,08,13,16.00
2015,07,05,08,14,16.00
2015,07,05,08,15,16.00
2015,07,05,08,16,16.10
2015,07,05,08,17,16.10
2015,07,05,08,18,16.10
2015,07,05,08,19,16.10
2015,07,05,08,20,16.10
2015,07,05,08,21,16.20
2015,07,05,08,22,16.20
2015,07,05,08,23,16.20
2015,07,05,08,24,16.20
2015,07,05,08,25,16.20
2015,07,05,08,26,16.20
2015,07,05,08,27,16.30
2015,07,05,08,28,16.20
2015,07,05,08,29,16.30
2015,07,05,08,30,16.30
2015,07,05,08,31,16.30
2015,07,05,08,32,16.30
2015,07,05,08,33,16.30
2015,07,05,08,34,16.30
2015,07,05,08,35,16.30
2015,07,05,08,36,16.30
2015,07,05,08,37,16.30
2015,07,05,08,38,16.40
2015,07,05,08,39,16.40
2015,07,05,08,40,16.40
2015,07,05,08,41,16.40
2015,07,05,08,42,16.50
2015,07,05,08,43,16.50
2015,07,05,08,44,16.60
2015,07,05,08,45,16.60
2015,07,05,08,46,16.60
2015,07,05,08,47,16.60
2015,07,05,08,48,16.70
2015,07,05,08,49,16.70
2015,07,05,08,50,16.70
2015,07,05,08,51,16.70
2015,07,05,08,52,16.80
2015,07,05,08,53,16.80
2015,07,05,08,54,16.80
2015,07,05,08,55,16.80
2015,07,05,08,56,16.90
2015,07,05,08,57,16.90
2015,07,05,08,58,17.00
2015,07,05,08,59,17.00
2015,07,05,09,00,17.00
2015,07,05,09,01,17.10
2015,07,05,09,02,17.10
2015,07,05,09,03,17.20
2015,07,05,09,04,17.20
2015,07,05,09,05,17.20
2015,07,05,09,06,17.20
2015,07,05,09,07,17.30
2015,07,05,09,08,17.30
2015,07,05,09,09,17.30
2015,07,05,09,10,17.40
2015,07,05,09,11,17.40
2015,07,05,09,12,17.40
2015,07,05,09,13,17.40
2015,07,05,09,14,17.50
2015,07,05,09,15,17.50
2015,07,05,09,16,17.50
2015,07,05,09,17,17.50
2015,07,05,09,18,17.60
2015,07,05,09,19,17.60
2015,07,05,09,20,17.60
2015,07,05,09,21,17.60
2015,07,05,09,22,17.70
2015,07,05,09,23,17.70
2015,07,05,09,24,17.70
2015,07,05,09,25,17.70
2015,07,05,09,26,17.80
2015,07,05,09,27,17.80
2015,07,05,09,28,17.80
2015,07,05,09,29,17.80
2015,07,05,09,30,17.90
2015,07,05,09,31,17.90
2015,07,05,09,32,17.90
2015,07,05,09,33,17.90
2015,07,05,09,34,17.90
2015,07,05,09,35,18.00
2015,07,05,09,36,18.00
2015,07,05,09,37,18.00
2015,07,05,09,38,18.10
2015,07,05,09,39,18.10
2015,07,05,09,40,18.10
2015,07,05,09,41,18.10
2015,07,05,09,42,18.20
2015,07,05,09,43,18.20
2015,07,05,09,44,18.20
2015,07,05,09,45,18.20
2015,07,05,09,46,18.20
2015,07,05,09,47,18.20
2015,07,05,09,48,18.30
2015,07,05,09,49,18.30
2015,07,05,09,50,18.30
2015,07,05,09,51,18.30
2015,07,05,09,52,18.30
2015,07,05,09,53,18.40
2015,07,05,09,54,18.40
2015,07,05,09,55,18.40
2015,07,05,09,56,18.50
2015,07,05,09,57,18.50
2015,07,05,09,58,18.60
2015,07,05,09,59,18.60
2015,07,05,10,00,18.60
2015,07,05,10,01,18.70
2015,07,05,10,02,18.70
2015,07,05,10,03,18.70
2015,07,05,10,04,18.70
2015,07,05,10,05,18.80
2015,07,05,10,06,18.80
2015,07,05,10,07,18.80
2015,07,05,10,08,18.80
2015,07,05,10,09,18.80
2015,07,05,10,10,18.90
2015,07,05,10,11,18.90
2015,07,05,10,12,18.90
2015,07,05,10,13,19.00
2015,07,05,10,14,19.00
2015,07,05,10,15,19.10
2015,07,05,10,16,19.10
2015,07,05,10,17,19.10
2015,07,05,10,18,19.20
2015,07,05,10,19,19.20
2015,07,05,10,20,19.30
2015,07,05,10,21,19.30
2015,07,05,10,22,19.30
2015,07,05,10,23,19.40
2015,07,05,10,24,19.40
2015,07,05,10,25,19.40
2015,07,05,10,26,19.50
2015,07,05,10,27,19.50
2015,07,05,10,28,19.60
2015,07,05,10,29,19.60
2015,07,05,10,30,19.60
2015,07,05,10,31,19.60
2015,07,05,10,32,19.70
2015,07,05,10,33,19.70
2015,07,05,10,34,19.70
2015,07,05,10,35,19.70
2015,07,05,10,36,19.70
2015,07,05,10,37,19.70
2015,07,05,10,38,19.70
2015,07,05,10,39,19.70
2015,07,05,10,40,19.70
2015,07,05,10,41,19.70
2015,07,05,10,42,19.70
2015,07,05,10,43,19.80
2015,07,05,10,44,19.80
2015,07,05,10,45,19.80
2015,07,05,10,46,19.80
2015,07,05,10,47,19.80
2015,07,05,10,48,19.90
2015,07,05,10,49,19.90
2015,07,05,10,50,19.90
2015,07,05,10,51,19.90
2015,07,05,10,52,19.90
2015,07,05,10,53,20.00
2015,07,05,10,54,20.00
2015,07,05,10,55,20.00
2015,07,05,10,56,20.00
2015,07,05,10,57,20.10
2015,07,05,10,58,20.10
2015,07,05,10,59,20.10
2015,07,05,11,00,20.10
2015,07,05,11,01,20.10
2015,07,05,11,02,20.10
2015,07,05,11,03,20.10
2015,07,05,11,04,20.10
2015,07,05,11,05,20.10
2015,07,05,11,06,20.10
2015,07,05,11,07,20.20
2015,07,05,11,08,20.20
2015,07,05,11,09,20.20
2015,07,05,11,10,20.20
2015,07,05,11,11,20.20
2015,07,05,11,12,20.20
2015,07,05,11,13,20.20
2015,07,05,11,14,20.20
2015,07,05,11,15,20.30
2015,07,05,11,16,20.30
2015,07,05,11,17,20.30
2015,07,05,11,18,20.30
2015,07,05,11,19,20.30
2015,07,05,11,20,20.40
2015,07,05,11,21,20.40
2015,07,05,11,22,20.40
2015,07,05,11,23,20.40
2015,07,05,11,24,20.40
2015,07,05,11,25,20.40
2015,07,05,11,26,20.40
2015,07,05,11,27,20.40
2015,07,05,11,28,20.40
2015,07,05,11,29,20.50
2015,07,05,11,30,20.50
2015,07,05,11,31,20.60
2015,07,05,11,32,20.60
2015,07,05,11,33,20.60
2015,07,05,11,34,20.60
2015,07,05,11,35,20.60
2015,07,05,11,36,20.60
2015,07,05,11,37,20.70
2015,07,05,11,38,20.70
2015,07,05,11,39,20.70
2015,07,05,11,40,20.70
2015,07,05,11,41,20.70
2015,07,05,11,42,20.80
2015,07,05,11,43,20.80
2015,07,05,11,44,20.80
2015,07,05,11,45,20.80
2015,07,05,11,46,20.80
2015,07,05,11,47,20.90
2015,07,05,11,48,20.90
2015,07,05,11,49,20.90
2015,07,05,11,50,20.90
2015,07,05,11,51,20.90
2015,07,05,11,52,20.90
2015,07,05,11,53,20.90
2015,07,05,11,54,20.90
2015,07,05,11,55,20.90
2015,07,05,11,56,20.90
2015,07,05,11,57,20.90
2015,07,05,11,58,21.00
2015,07,05,11,59,21.00
2015,07,05,12,00,21.10
2015,07,05,12,01,21.10
2015,07,05,12,02,21.10
2015,07,05,12,03,21.10
2015,07,05,12,04,21.20
2015,07,05,12,05,21.20
2015,07,05,12,06,21.30
2015,07,05,12,07,21.30
2015,07,05,12,08,21.30
2015,07,05,12,09,21.40
2015,07,05,12,10,21.40
2015,07,05,12,11,21.40
2015,07,05,12,12,21.50
2015,07,05,12,13,21.50
2015,07,05,12,14,21.60
2015,07,05,12,15,21.60
2015,07,05,12,16,21.70
2015,07,05,12,17,21.70
2015,07,05,12,18,21.70
2015,07,05,12,19,21.80
2015,07,05,12,20,21.80
2015,07,05,12,21,21.80
2015,07,05,12,22,21.90
2015,07,05,12,23,21.90
2015,07,05,12,24,21.90
2015,07,05,12,25,21.90
2015,07,05,12,26,22.00
2015,07,05,12,27,22.00
2015,07,05,12,28,22.10
2015,07,05,12,29,22.10
2015,07,05,12,30,22.10
2015,07,05,12,31,22.10
2015,07,05,12,32,22.20
2015,07,05,12,33,22.20
2015,07,05,12,34,22.20
2015,07,05,12,35,22.20
2015,07,05,12,36,22.20
2015,07,05,12,37,22.20
2015,07,05,12,38,22.10
2015,07,05,12,39,22.10
2015,07,05,12,40,22.10
2015,07,05,12,41,22.00
2015,07,05,12,42,22.00
2015,07,05,12,43,22.00
2015,07,05,12,44,22.00
2015,07,05,12,45,22.00
2015,07,05,12,46,22.00
2015,07,05,12,47,22.10
2015,07,05,12,48,22.10
2015,07,05,12,49,22.10
2015,07,05,12,50,22.20
2015,07,05,12,51,22.20
2015,07,05,12,52,22.30
2015,07,05,12,53,22.30
2015,07,05,12,54,22.40
2015,07,05,12,55,22.50
2015,07,05,12,56,22.50
2015,07,05,12,57,22.60
2015,07,05,12,58,22.60
2015,07,05,12,59,22.70
2015,07,05,13,00,22.70
2015,07,05,13,01,22.70
2015,07,05,13,02,22.70
2015,07,05,13,03,22.80
2015,07,05,13,04,22.80
2015,07,05,13,05,22.80
2015,07,05,13,06,22.90
2015,07,05,13,07,22.90
2015,07,05,13,08,22.90
2015,07,05,13,09,23.00
2015,07,05,13,10,23.00
2015,07,05,13,11,23.00
2015,07,05,13,12,23.10
2015,07,05,13,13,23.10
2015,07,05,13,14,23.10
2015,07,05,13,15,23.20
2015,07,05,13,16,23.20
2015,07,05,13,17,23.20
2015,07,05,13,18,23.20
2015,07,05,13,19,23.30
2015,07,05,13,20,23.30
2015,07,05,13,21,23.30
2015,07,05,13,22,23.30
2015,07,05,13,23,23.30
2015,07,05,13,24,23.40
2015,07,05,13,25,23.40
2015,07,05,13,26,23.40
2015,07,05,13,27,23.40
2015,07,05,13,28,23.50
2015,07,05,13,29,23.50
2015,07,05,13,30,23.60
2015,07,05,13,31,23.60
2015,07,05,13,32,23.60
2015,07,05,13,33,23.60
2015,07,05,13,34,23.60
2015,07,05,13,35,23.60
2015,07,05,13,36,23.60
2015,07,05,13,37,23.60
2015,07,05,13,38,23.50
2015,07,05,13,39,23.50
2015,07,05,13,40,23.50
2015,07,05,13,41,23.40
2015,07,05,13,42,23.40
2015,07,05,13,43,23.30
2015,07,05,13,44,23.30
2015,07,05,13,45,23.30
2015,07,05,13,46,23.30
2015,07,05,13,47,23.30
2015,07,05,13,48,23.30
2015,07,05,13,49,23.20
2015,07,05,13,50,23.20
2015,07,05,13,51,23.20
2015,07,05,13,52,23.20
2015,07,05,13,53,23.30
2015,07,05,13,54,23.30
2015,07,05,13,55,23.30
2015,07,05,13,56,23.30
2015,07,05,13,57,23.30
2015,07,05,13,58,23.40
2015,07,05,13,59,23.40
2015,07,05,14,00,23.40
2015,07,05,14,01,23.40
2015,07,05,14,02,23.40
2015,07,05,14,03,23.40
2015,07,05,14,04,23.40
2015,07,05,14,05,23.40
2015,07,05,14,06,23.40
2015,07,05,14,07,23.50
2015,07,05,14,08,23.50
2015,07,05,14,09,23.50
2015,07,05,14,10,23.50
2015,07,05,14,11,23.50
2015,07,05,14,12,23.50
2015,07,05,14,13,23.60
2015,07,05,14,14,23.60
2015,07,05,14,15,23.60
2015,07,05,14,16,23.60
2015,07,05,14,17,23.60
2015,07,05,14,18,23.60
2015,07,05,14,19,23.60
2015,07,05,14,20,23.60
2015,07,05,14,21,23.70
2015,07,05,14,22,23.70
2015,07,05,14,23,23.70
2015,07,05,14,24,23.70
2015,07,05,14,25,23.80
2015,07,05,14,26,23.80
2015,07,05,14,27,23.80
2015,07,05,14,28,23.90
2015,07,05,14,29,23.90
2015,07,05,14,30,23.90
2015,07,05,14,31,24.00
2015,07,05,14,32,24.10
2015,07,05,14,33,24.20
2015,07,05,14,34,24.20
2015,07,05,14,35,24.30
2015,07,05,14,36,24.30
2015,07,05,14,37,24.40
2015,07,05,14,38,24.50
2015,07,05,14,39,24.60
2015,07,05,14,40,24.60
2015,07,05,14,41,24.70
2015,07,05,14,42,24.70
2015,07,05,14,43,24.70
2015,07,05,14,44,24.80
2015,07,05,14,45,24.80
2015,07,05,14,46,24.80
2015,07,05,14,47,24.80
2015,07,05,14,48,24.90
2015,07,05,14,49,24.90
2015,07,05,14,50,24.90
2015,07,05,14,51,25.00
2015,07,05,14,52,25.00
2015,07,05,14,53,25.00
2015,07,05,14,54,25.00
2015,07,05,14,55,25.10
2015,07,05,14,56,25.10
2015,07,05,14,57,25.10
2015,07,05,14,58,25.20
2015,07,05,14,59,25.20
2015,07,05,15,00,25.20
2015,07,05,15,01,25.30
2015,07,05,15,02,25.30
2015,07,05,15,03,25.30
2015,07,05,15,04,25.30
2015,07,05,15,05,25.30
2015,07,05,15,06,25.30
2015,07,05,15,07,25.30
2015,07,05,15,08,25.30
2015,07,05,15,09,25.30
2015,07,05,15,10,25.30
2015,07,05,15,11,25.30
2015,07,05,15,12,25.30
2015,07,05,15,13,25.30
2015,07,05,15,14,25.40
2015,07,05,15,15,25.40
2015,07,05,15,16,25.40
2015,07,05,15,17,25.40
2015,07,05,15,18,25.40
2015,07,05,15,19,25.40
2015,07,05,15,20,25.40
2015,07,05,15,21,25.40
2015,07,05,15,22,25.40
2015,07,05,15,23,25.40
2015,07,05,15,24,25.40
2015,07,05,15,25,25.40
2015,07,05,15,26,25.40
2015,07,05,15,27,25.40
2015,07,05,15,28,25.30
2015,07,05,15,29,25.30
2015,07,05,15,30,25.30
2015,07,05,15,31,25.30
2015,07,05,15,32,25.20
2015,07,05,15,33,25.20
2015,07,05,15,34,25.20
2015,07,05,15,35,25.20
2015,07,05,15,36,25.20
2015,07,05,15,37,25.20
2015,07,05,15,38,25.30
2015,07,05,15,39,25.30
2015,07,05,15,40,25.30
2015,07,05,15,41,25.30
2015,07,05,15,42,25.30
2015,07,05,15,43,25.30
2015,07,05,15,44,25.30
2015,07,05,15,45,25.30
2015,07,05,15,46,25.30
2015,07,05,15,47,25.30
2015,07,05,15,48,25.30
2015,07,05,15,49,25.30
2015,07,05,15,50,25.30
2015,07,05,15,51,25.30
2015,07,05,15,52,25.30
2015,07,05,15,53,25.30
2015,07,05,15,54,25.30
2015,07,05,15,55,25.30
2015,07,05,15,56,25.30
2015,07,05,15,57,25.30
2015,07,05,15,58,25.30
2015,07,05,15,59,25.30
2015,07,05,16,00,25.30
2015,07,05,16,01,25.30
2015,07,05,16,02,25.30
2015,07,05,16,03,25.30
2015,07,05,16,04,25.40
2015,07,05,16,05,25.40
2015,07,05,16,06,25.40
2015,07,05,16,07,25.40
2015,07,05,16,08,25.40
2015,07,05,16,09,25.40
2015,07,05,16,10,25.50
2015,07,05,16,11,25.50
2015,07,05,16,12,25.50
2015,07,05,16,13,25.60
2015,07,05,16,14,25.60
2015,07,05,16,15,25.70
2015,07,05,16,16,25.70
2015,07,05,16,17,25.70
2015,07,05,16,18,25.80
2015,07,05,16,19,25.80
2015,07,05,16,20,25.80
2015,07,05,16,21,25.80
2015,07,05,16,22,25.80
2015,07,05,16,23,25.90
2015,07,05,16,24,25.90
2015,07,05,16,25,25.90
2015,07,05,16,26,25.90
2015,07,05,16,27,25.80
2015,07,05,16,28,25.80
2015,07,05,16,29,25.80
2015,07,05,16,30,25.80
2015,07,05,16,31,25.70
2015,07,05,16,32,25.70
2015,07,05,16,33,25.70
2015,07,05,16,34,25.70
2015,07,05,16,35,25.70
2015,07,05,16,36,25.60
2015,07,05,16,37,25.60
2015,07,05,16,38,25.60
2015,07,05,16,39,25.60
2015,07,05,16,40,25.50
2015,07,05,16,41,25.50
2015,07,05,16,42,25.40
2015,07,05,16,43,25.40
2015,07,05,16,44,25.40
2015,07,05,16,45,25.30
2015,07,05,16,46,25.30
2015,07,05,16,47,25.30
2015,07,05,16,48,25.30
2015,07,05,17,06,18.30
2015,07,05,17,07,18.30
2015,07,05,17,08,18.30
2015,07,05,17,09,18.30
2015,07,05,17,10,18.30
2015,07,05,17,11,18.30
2015,07,05,17,12,18.40
2015,07,05,17,13,18.40
2015,07,05,17,14,18.40
2015,07,05,17,15,18.40
2015,07,05,17,16,18.40
2015,07,05,17,17,18.50
2015,07,05,17,18,18.50
2015,07,05,17,19,18.50
2015,07,05,17,20,18.50
2015,07,05,17,21,18.60
2015,07,05,17,22,18.60
2015,07,05,17,23,18.60
2015,07,05,17,24,18.60
2015,07,05,17,25,18.60
2015,07,05,17,26,18.70
2015,07,05,17,27,18.70
2015,07,05,17,28,18.60
2015,07,05,17,29,18.70
2015,07,05,17,30,18.70
2015,07,05,17,31,18.70
2015,07,05,17,32,18.80
2015,07,05,17,33,18.80
2015,07,05,17,34,18.80
2015,07,05,17,35,18.90
2015,07,05,17,36,18.90